DDG YBAF-YBCG

Flight info

Callsign DDG
Flight time 0h 19m
Altitude 6000
Route MOOVI
Aircraft BE58/L-SDFGRY/C

Departure

Time 2026-04-25 05:53
Airport Brisbane Archerfield Airport (YBAF)

Arrival

Time 2026-04-25 06:12
Airport Gold Coast Airport (YBCG)
Time Latitude Longitude Altitude Speed Heading
2026-04-25 05:32 -27.57030 153.01248 45 ft 0 kts 190°
2026-04-25 05:38 -27.57036 153.01247 46 ft 0 kts 191°
2026-04-25 05:39 -27.57037 153.01247 46 ft 1 kts 191°
2026-04-25 05:39 -27.57070 153.01197 49 ft 12 kts 223°
2026-04-25 05:39 -27.57128 153.01173 48 ft 11 kts 187°
2026-04-25 05:40 -27.57216 153.01145 44 ft 16 kts 189°
2026-04-25 05:40 -27.57267 153.01119 41 ft 1 kts 155°
2026-04-25 05:43 -27.57281 153.01123 41 ft 4 kts 168°
2026-04-25 05:43 -27.57335 153.01119 37 ft 12 kts 212°
2026-04-25 05:43 -27.57323 153.01039 36 ft 14 kts 289°
2026-04-25 05:44 -27.57291 153.00928 38 ft 14 kts 288°
2026-04-25 05:44 -27.57257 153.00810 39 ft 18 kts 287°
2026-04-25 05:44 -27.57214 153.00660 40 ft 21 kts 287°
2026-04-25 05:44 -27.57170 153.00505 44 ft 20 kts 289°
2026-04-25 05:45 -27.57123 153.00343 40 ft 24 kts 289°
2026-04-25 05:45 -27.57076 153.00177 40 ft 22 kts 285°
2026-04-25 05:45 -27.57024 152.99995 39 ft 26 kts 289°
2026-04-25 05:45 -27.56969 152.99798 42 ft 25 kts 281°
2026-04-25 05:46 -27.56976 152.99699 43 ft 4 kts 195°
2026-04-25 05:46 -27.56977 152.99698 43 ft 0 kts 196°
2026-04-25 05:51 -27.57004 152.99684 43 ft 12 kts 208°
2026-04-25 05:51 -27.57026 152.99694 43 ft 0 kts 107°
2026-04-25 05:52 -27.57030 152.99711 43 ft 20 kts 107°
2026-04-25 05:52 -27.57180 153.00236 71 ft 109 kts 109°
2026-04-25 05:52 -27.57488 153.01218 255 ft 153 kts 111°
2026-04-25 05:52 -27.57897 153.02457 407 ft 178 kts 111°
2026-04-25 05:53 -27.58271 153.03788 674 ft 183 kts 106°
2026-04-25 05:53 -27.58604 153.05177 952 ft 183 kts 107°
2026-04-25 05:53 -27.58915 153.06547 1216 ft 178 kts 105°
2026-04-25 05:53 -27.59202 153.07899 1495 ft 177 kts 106°
2026-04-25 05:54 -27.59487 153.09244 1770 ft 175 kts 106°
2026-04-25 05:54 -27.59767 153.10559 2048 ft 171 kts 106°
2026-04-25 05:54 -27.60746 153.12937 2552 ft 168 kts 126°
2026-04-25 05:55 -27.61514 153.13912 2588 ft 171 kts 148°
2026-04-25 05:55 -27.62772 153.13583 1257 ft 183 kts 191°
2026-04-25 05:55 -27.63860 153.13628 2271 ft 152 kts 159°
2026-04-25 05:55 -27.64820 153.14056 2615 ft 153 kts 157°
2026-04-25 05:56 -27.65824 153.14448 2958 ft 148 kts 158°
2026-04-25 05:56 -27.66799 153.14836 3035 ft 154 kts 156°
2026-04-25 05:56 -27.67676 153.15451 3175 ft 143 kts 134°
2026-04-25 05:56 -27.68417 153.16183 3348 ft 140 kts 142°
2026-04-25 05:57 -27.69192 153.16826 3564 ft 136 kts 143°
2026-04-25 05:57 -27.69967 153.17436 3710 ft 137 kts 144°
2026-04-25 05:57 -27.70769 153.18063 3775 ft 142 kts 144°
2026-04-25 05:57 -27.71575 153.18669 3982 ft 136 kts 145°
2026-04-25 05:58 -27.72368 153.19251 4115 ft 137 kts 145°
2026-04-25 05:58 -27.73122 153.19845 4346 ft 127 kts 140°
2026-04-25 05:58 -27.73877 153.20424 4363 ft 135 kts 144°
2026-04-25 05:58 -27.74648 153.21006 4514 ft 131 kts 142°
2026-04-25 05:59 -27.75402 153.21590 4535 ft 135 kts 143°
2026-04-25 05:59 -27.76186 153.22190 4550 ft 137 kts 143°
2026-04-25 05:59 -27.76972 153.22794 4570 ft 137 kts 143°
2026-04-25 05:59 -27.77763 153.23397 4588 ft 137 kts 143°
2026-04-25 06:00 -27.78554 153.24014 4603 ft 139 kts 143°
2026-04-25 06:00 -27.79351 153.24636 4627 ft 140 kts 143°
2026-04-25 06:00 -27.80150 153.25260 4676 ft 138 kts 143°
2026-04-25 06:00 -27.80926 153.25871 4753 ft 134 kts 143°
2026-04-25 06:01 -27.81685 153.26460 4829 ft 132 kts 143°
2026-04-25 06:01 -27.82434 153.27048 4900 ft 130 kts 143°
2026-04-25 06:01 -27.83170 153.27625 4972 ft 131 kts 143°
2026-04-25 06:01 -27.83923 153.28206 5006 ft 133 kts 143°
2026-04-25 06:02 -27.84694 153.28796 5010 ft 134 kts 143°
2026-04-25 06:02 -27.85472 153.29389 5006 ft 136 kts 143°
2026-04-25 06:02 -27.86257 153.29998 4973 ft 138 kts 143°
2026-04-25 06:02 -27.87056 153.30620 4923 ft 140 kts 143°
2026-04-25 06:03 -27.87858 153.31247 4884 ft 141 kts 143°
2026-04-25 06:03 -27.88392 153.31667 4851 ft 142 kts 143°
2026-04-25 06:03 -27.89202 153.32305 4801 ft 142 kts 143°
2026-04-25 06:03 -27.90014 153.32947 4752 ft 143 kts 143°
2026-04-25 06:04 -27.90830 153.33597 4687 ft 145 kts 143°
2026-04-25 06:04 -27.91937 153.34483 4562 ft 149 kts 143°
2026-04-25 06:04 -27.92788 153.35168 4463 ft 151 kts 143°
2026-04-25 06:04 -27.93368 153.35637 4398 ft 152 kts 143°
2026-04-25 06:05 -27.94512 153.36562 4269 ft 154 kts 142°
2026-04-25 06:05 -27.95102 153.37043 4204 ft 156 kts 142°
2026-04-25 06:05 -27.95984 153.37754 4105 ft 155 kts 142°
2026-04-25 06:05 -27.96830 153.38442 4038 ft 148 kts 142°
2026-04-25 06:06 -27.97644 153.39112 4039 ft 141 kts 143°
2026-04-25 06:06 -27.98427 153.39760 4040 ft 138 kts 142°
2026-04-25 06:06 -27.99198 153.40402 4038 ft 138 kts 142°
2026-04-25 06:06 -27.99964 153.41046 4036 ft 136 kts 142°
2026-04-25 06:07 -28.00720 153.41688 4040 ft 136 kts 141°
2026-04-25 06:07 -28.01487 153.42329 4037 ft 138 kts 142°
2026-04-25 06:07 -28.02262 153.42968 4035 ft 137 kts 146°
2026-04-25 06:07 -28.03090 153.43472 4032 ft 137 kts 150°
2026-04-25 06:08 -28.03939 153.43952 4006 ft 138 kts 150°
2026-04-25 06:08 -28.04816 153.44440 3959 ft 143 kts 152°
2026-04-25 06:08 -28.05722 153.44909 3908 ft 141 kts 152°
2026-04-25 06:08 -28.06614 153.45314 3793 ft 139 kts 160°
2026-04-25 06:09 -28.07574 153.45581 3490 ft 145 kts 161°
2026-04-25 06:09 -28.08573 153.45876 3163 ft 151 kts 160°
2026-04-25 06:09 -28.09586 153.46222 2817 ft 153 kts 156°
2026-04-25 06:09 -28.10552 153.46747 2336 ft 156 kts 149°
2026-04-25 06:10 -28.11491 153.47367 1985 ft 147 kts 147°
2026-04-25 06:10 -28.12241 153.47872 1524 ft 105 kts 147°
2026-04-25 06:10 -28.12807 153.48242 1174 ft 91 kts 147°
2026-04-25 06:10 -28.13379 153.48614 829 ft 100 kts 149°
2026-04-25 06:11 -28.13959 153.48988 696 ft 95 kts 152°
2026-04-25 06:11 -28.14529 153.49349 561 ft 90 kts 149°
2026-04-25 06:11 -28.15075 153.49691 325 ft 89 kts 148°
2026-04-25 06:11 -28.15586 153.50027 103 ft 81 kts 147°
2026-04-25 06:12 -28.16028 153.50311 22 ft 58 kts 147°
2026-04-25 06:12 -28.16217 153.50433 21 ft 23 kts 149°
2026-04-25 06:12 -28.16355 153.50528 21 ft 22 kts 116°
2026-04-25 06:12 -28.16318 153.50642 21 ft 1 kts 53°
2026-04-25 06:13 -28.16318 153.50643 21 ft 0 kts 53°